Time,TemperatureF,DewpointF,PressureIn,WindDirection,WindDirectionDegrees,WindSpeedMPH,WindSpeedGustMPH,Humidity,HourlyPrecipIn,Conditions,Clouds,dailyrainin,SoftwareType,DateUTC
2013-02-28 00:00:00,42.4,33.7,29.63,SSE,158,0.0,5.0,71,0.00,,---,0.00,VWS V14.01,2013-02-28 05:00:00,
2013-02-28 00:05:00,42.4,33.7,29.64,SSE,159,0.0,5.0,71,0.00,,---,0.00,VWS V14.01,2013-02-28 05:05:00,
2013-02-28 00:10:00,42.2,33.8,29.64,SSE,159,0.0,0.0,72,0.00,,---,0.00,VWS V14.01,2013-02-28 05:10:00,
2013-02-28 00:15:00,42.0,33.6,29.64,NNW,328,6.0,6.0,72,0.00,,---,0.00,VWS V14.01,2013-02-28 05:15:00,
2013-02-28 00:20:00,41.7,34.4,29.64,NW,325,0.0,4.0,75,0.00,,---,0.00,VWS V14.01,2013-02-28 05:20:00,
2013-02-28 00:25:00,41.7,34.7,29.64,West,277,5.0,8.0,76,0.00,,---,0.00,VWS V14.01,2013-02-28 05:25:00,
2013-02-28 00:30:00,42.2,34.5,29.63,WNW,294,7.0,13.0,74,0.00,,---,0.00,VWS V14.01,2013-02-28 05:30:00,
2013-02-28 00:35:00,42.9,34.2,29.64,West,280,5.0,13.0,71,0.00,,---,0.00,VWS V14.01,2013-02-28 05:35:00,
2013-02-28 00:40:00,43.1,34.0,29.63,West,278,4.0,10.0,70,0.00,,---,0.00,VWS V14.01,2013-02-28 05:40:00,
2013-02-28 00:45:00,43.2,33.7,29.63,West,261,7.0,10.0,69,0.00,,---,0.00,VWS V14.01,2013-02-28 05:45:00,
2013-02-28 00:50:00,43.1,34.0,29.63,West,265,6.0,6.0,70,0.00,,---,0.00,VWS V14.01,2013-02-28 05:50:00,
2013-02-28 00:55:00,43.0,33.5,29.63,WNW,289,8.0,11.0,69,0.00,,---,0.00,VWS V14.01,2013-02-28 05:55:00,
2013-02-28 01:00:00,43.3,32.7,29.62,West,277,4.0,7.0,66,0.00,,---,0.00,VWS V14.01,2013-02-28 06:00:00,
2013-02-28 01:05:00,43.4,32.4,29.63,West,260,4.0,6.0,65,0.00,,---,0.00,VWS V14.01,2013-02-28 06:05:00,
2013-02-28 01:10:00,43.5,32.9,29.62,WNW,298,4.0,11.0,66,0.00,,---,0.00,VWS V14.01,2013-02-28 06:10:00,
2013-02-28 01:15:00,43.4,32.4,29.62,WNW,297,0.0,4.0,65,0.00,,---,0.00,VWS V14.01,2013-02-28 06:15:00,
2013-02-28 01:20:00,43.2,33.4,29.63,WNW,297,0.0,4.0,68,0.00,,---,0.00,VWS V14.01,2013-02-28 06:20:00,
2013-02-28 01:25:00,42.8,33.7,29.63,WNW,297,2.0,5.0,70,0.00,,---,0.00,VWS V14.01,2013-02-28 06:25:00,
2013-02-28 01:30:00,42.6,33.5,29.63,WNW,292,2.0,5.0,70,0.00,,---,0.00,VWS V14.01,2013-02-28 06:30:00,
2013-02-28 01:35:00,42.4,33.7,29.63,WNW,293,0.0,2.0,71,0.00,,---,0.00,VWS V14.01,2013-02-28 06:35:00,
2013-02-28 01:40:00,42.0,33.6,29.63,SSW,213,0.0,5.0,72,0.00,,---,0.00,VWS V14.01,2013-02-28 06:40:00,
2013-02-28 01:45:00,41.6,33.9,29.63,SSW,198,2.0,4.0,74,0.00,,---,0.00,VWS V14.01,2013-02-28 06:45:00,
2013-02-28 01:50:00,41.3,34.0,29.63,SSW,198,0.0,2.0,75,0.00,,---,0.00,VWS V14.01,2013-02-28 06:50:00,
2013-02-28 01:55:00,41.3,33.7,29.63,SSW,204,1.0,1.0,74,0.00,,---,0.00,VWS V14.01,2013-02-28 06:55:00,
2013-02-28 02:00:00,41.3,33.7,29.63,South,189,0.0,2.0,74,0.00,,---,0.00,VWS V14.01,2013-02-28 07:00:00,
2013-02-28 02:05:00,41.2,33.5,29.63,WNW,282,6.0,8.0,74,0.00,,---,0.00,VWS V14.01,2013-02-28 07:05:00,
2013-02-28 02:10:00,41.6,32.9,29.63,WNW,288,0.0,6.0,71,0.00,,---,0.00,VWS V14.01,2013-02-28 07:10:00,
2013-02-28 02:15:00,42.0,31.9,29.62,NW,310,9.0,12.0,67,0.00,,---,0.00,VWS V14.01,2013-02-28 07:15:00,
2013-02-28 02:20:00,42.1,31.2,29.62,NW,319,8.0,11.0,65,0.00,,---,0.00,VWS V14.01,2013-02-28 07:20:00,
2013-02-28 02:25:00,42.1,30.8,29.62,WSW,257,13.0,15.0,64,0.00,,---,0.00,VWS V14.01,2013-02-28 07:25:00,
2013-02-28 02:30:00,42.1,30.0,29.62,West,262,7.0,9.0,62,0.00,,---,0.00,VWS V14.01,2013-02-28 07:30:00,
2013-02-28 02:35:00,42.0,29.5,29.62,NW,305,5.0,10.0,61,0.00,,---,0.00,VWS V14.01,2013-02-28 07:35:00,
2013-02-28 02:40:00,41.8,29.4,29.62,WNW,289,0.0,8.0,61,0.00,,---,0.00,VWS V14.01,2013-02-28 07:40:00,
2013-02-28 02:45:00,41.6,29.6,29.62,WNW,288,0.0,8.0,62,0.00,,---,0.00,VWS V14.01,2013-02-28 07:45:00,
2013-02-28 02:50:00,41.6,29.2,29.62,WSW,240,2.0,10.0,61,0.00,,---,0.00,VWS V14.01,2013-02-28 07:50:00,
2013-02-28 02:55:00,41.6,29.2,29.62,WNW,283,6.0,9.0,61,0.00,,---,0.00,VWS V14.01,2013-02-28 07:55:00,
2013-02-28 03:00:00,41.5,29.5,29.62,NW,324,7.0,12.0,62,0.00,,---,0.00,VWS V14.01,2013-02-28 08:00:00,
2013-02-28 03:05:00,41.4,29.8,29.62,NW,308,5.0,11.0,63,0.00,,---,0.00,VWS V14.01,2013-02-28 08:05:00,
2013-02-28 03:10:00,41.3,30.1,29.62,WNW,301,11.0,11.0,64,0.00,,---,0.00,VWS V14.01,2013-02-28 08:10:00,
2013-02-28 03:15:00,41.1,29.9,29.62,NW,318,6.0,8.0,64,0.00,,---,0.00,VWS V14.01,2013-02-28 08:15:00,
2013-02-28 03:20:00,41.0,31.6,29.63,NNW,333,10.0,14.0,69,0.00,,---,0.00,VWS V14.01,2013-02-28 08:20:00,
2013-02-28 03:25:00,41.0,30.5,29.63,NNW,344,6.0,10.0,66,0.00,,---,0.00,VWS V14.01,2013-02-28 08:25:00,
2013-02-28 03:30:00,41.0,30.5,29.63,NNW,344,7.0,10.0,66,0.00,,---,0.00,VWS V14.01,2013-02-28 08:30:00,
2013-02-28 03:35:00,41.0,30.1,29.63,NW,317,11.0,20.0,65,0.00,,---,0.00,VWS V14.01,2013-02-28 08:35:00,
2013-02-28 03:40:00,41.0,29.8,29.63,WNW,300,8.0,14.0,64,0.00,,---,0.00,VWS V14.01,2013-02-28 08:40:00,
2013-02-28 03:45:00,40.7,29.5,29.63,NW,304,7.0,13.0,64,0.00,,---,0.00,VWS V14.01,2013-02-28 08:45:00,
2013-02-28 03:50:00,40.6,29.0,29.63,WNW,301,6.0,12.0,63,0.00,,---,0.00,VWS V14.01,2013-02-28 08:50:00,
2013-02-28 03:55:00,40.5,28.9,29.63,WNW,298,5.0,8.0,63,0.00,,---,0.00,VWS V14.01,2013-02-28 08:55:00,
2013-02-28 04:00:00,40.3,27.9,29.63,NW,325,6.0,13.0,61,0.00,,---,0.00,VWS V14.01,2013-02-28 09:00:00,
2013-02-28 04:05:00,40.3,27.9,29.63,NNW,333,6.0,11.0,61,0.00,,---,0.00,VWS V14.01,2013-02-28 09:05:00,
2013-02-28 04:10:00,40.2,27.8,29.63,NNW,327,6.0,13.0,61,0.00,,---,0.00,VWS V14.01,2013-02-28 09:10:00,
2013-02-28 04:15:00,40.0,26.8,29.63,NNW,344,7.0,13.0,59,0.00,,---,0.00,VWS V14.01,2013-02-28 09:15:00,
2013-02-28 04:20:00,39.8,26.7,29.63,WNW,289,5.0,14.0,59,0.00,,---,0.00,VWS V14.01,2013-02-28 09:20:00,
2013-02-28 04:25:00,39.8,26.7,29.63,NW,306,9.0,15.0,59,0.00,,---,0.00,VWS V14.01,2013-02-28 09:25:00,
2013-02-28 04:30:00,39.8,26.2,29.63,WNW,302,0.0,11.0,58,0.00,,---,0.00,VWS V14.01,2013-02-28 09:30:00,
2013-02-28 04:35:00,39.5,26.0,29.64,WNW,291,5.0,8.0,58,0.00,,---,0.00,VWS V14.01,2013-02-28 09:35:00,
2013-02-28 04:40:00,39.6,26.1,29.64,NNW,339,5.0,8.0,58,0.00,,---,0.00,VWS V14.01,2013-02-28 09:40:00,
2013-02-28 04:45:00,39.6,26.1,29.64,NW,304,0.0,7.0,58,0.00,,---,0.00,VWS V14.01,2013-02-28 09:45:00,
2013-02-28 04:50:00,39.4,25.9,29.64,North,5,0.0,4.0,58,0.00,,---,0.00,VWS V14.01,2013-02-28 09:50:00,
2013-02-28 04:55:00,38.9,25.8,29.64,North,5,0.0,1.0,59,0.00,,---,0.00,VWS V14.01,2013-02-28 09:55:00,
2013-02-28 05:00:00,38.7,25.2,29.64,West,279,0.0,11.0,58,0.00,,---,0.00,VWS V14.01,2013-02-28 10:00:00,
2013-02-28 05:05:00,38.6,25.5,29.64,WNW,296,4.0,4.0,59,0.00,,---,0.00,VWS V14.01,2013-02-28 10:05:00,
2013-02-28 05:10:00,38.4,24.9,29.64,West,275,4.0,7.0,58,0.00,,---,0.00,VWS V14.01,2013-02-28 10:10:00,
2013-02-28 05:15:00,38.3,25.2,29.64,WNW,294,11.0,13.0,59,0.00,,---,0.00,VWS V14.01,2013-02-28 10:15:00,
2013-02-28 05:20:00,38.4,24.9,29.64,WNW,285,9.0,18.0,58,0.00,,---,0.00,VWS V14.01,2013-02-28 10:20:00,
2013-02-28 05:25:00,38.7,24.8,29.64,WNW,290,7.0,11.0,57,0.00,,---,0.00,VWS V14.01,2013-02-28 10:25:00,
2013-02-28 05:30:00,38.7,24.8,29.65,WNW,284,5.0,9.0,57,0.00,,---,0.00,VWS V14.01,2013-02-28 10:30:00,
2013-02-28 05:35:00,38.7,24.4,29.65,NW,317,6.0,9.0,56,0.00,,---,0.00,VWS V14.01,2013-02-28 10:35:00,
2013-02-28 05:40:00,38.7,24.4,29.65,NW,311,0.0,4.0,56,0.00,,---,0.00,VWS V14.01,2013-02-28 10:40:00,
2013-02-28 05:45:00,38.4,24.1,29.66,NW,310,2.0,6.0,56,0.00,,---,0.00,VWS V14.01,2013-02-28 10:45:00,
2013-02-28 05:50:00,38.3,24.0,29.65,NNW,330,8.0,9.0,56,0.00,,---,0.00,VWS V14.01,2013-02-28 10:50:00,
2013-02-28 05:55:00,38.2,24.7,29.66,West,281,7.0,13.0,58,0.00,,---,0.00,VWS V14.01,2013-02-28 10:55:00,
2013-02-28 06:00:00,38.1,24.2,29.66,West,281,0.0,6.0,57,0.00,,---,0.00,VWS V14.01,2013-02-28 11:00:00,
2013-02-28 06:05:00,37.6,24.2,29.66,WNW,285,4.0,4.0,58,0.00,,---,0.00,VWS V14.01,2013-02-28 11:05:00,
2013-02-28 06:10:00,37.1,24.1,29.66,WNW,296,0.0,6.0,59,0.00,,---,0.00,VWS V14.01,2013-02-28 11:10:00,
2013-02-28 06:15:00,36.7,23.7,29.66,NW,322,5.0,6.0,59,0.00,,---,0.00,VWS V14.01,2013-02-28 11:15:00,
2013-02-28 06:20:00,37.1,23.7,29.65,WNW,299,0.0,8.0,58,0.00,,---,0.00,VWS V14.01,2013-02-28 11:20:00,
2013-02-28 06:25:00,37.6,23.8,29.66,NW,319,0.0,8.0,57,0.00,,---,0.00,VWS V14.01,2013-02-28 11:25:00,
2013-02-28 06:30:00,37.5,24.1,29.66,West,267,1.0,9.0,58,0.00,,---,0.00,VWS V14.01,2013-02-28 11:30:00,
2013-02-28 06:35:00,37.5,23.7,29.66,WSW,252,5.0,9.0,57,0.00,,---,0.00,VWS V14.01,2013-02-28 11:35:00,
2013-02-28 06:40:00,37.8,24.0,29.66,WSW,255,3.0,10.0,57,0.00,,---,0.00,VWS V14.01,2013-02-28 11:40:00,
2013-02-28 06:45:00,38.1,23.8,29.66,West,273,5.0,8.0,56,0.00,,---,0.00,VWS V14.01,2013-02-28 11:45:00,
2013-02-28 06:50:00,38.2,23.9,29.66,SW,231,6.0,6.0,56,0.00,,---,0.00,VWS V14.01,2013-02-28 11:50:00,
2013-02-28 06:55:00,38.3,24.0,29.66,West,275,8.0,13.0,56,0.00,,---,0.00,VWS V14.01,2013-02-28 11:55:00,
2013-02-28 07:00:00,38.6,23.8,29.66,WNW,284,6.0,8.0,55,0.00,,---,0.00,VWS V14.01,2013-02-28 12:00:00,
2013-02-28 07:05:00,38.8,24.0,29.66,NW,304,9.0,9.0,55,0.00,,---,0.00,VWS V14.01,2013-02-28 12:05:00,
2013-02-28 07:10:00,38.8,24.0,29.66,NW,307,9.0,11.0,55,0.00,,---,0.00,VWS V14.01,2013-02-28 12:10:00,
2013-02-28 07:15:00,38.7,24.4,29.66,SW,229,0.0,7.0,56,0.00,,---,0.00,VWS V14.01,2013-02-28 12:15:00,
2013-02-28 07:20:00,38.6,24.3,29.66,West,273,0.0,6.0,56,0.00,,---,0.00,VWS V14.01,2013-02-28 12:20:00,
2013-02-28 07:25:00,38.4,24.9,29.66,West,275,2.0,4.0,58,0.00,,---,0.00,VWS V14.01,2013-02-28 12:25:00,
2013-02-28 07:30:00,38.3,24.8,29.66,West,274,0.0,2.0,58,0.00,,---,0.00,VWS V14.01,2013-02-28 12:30:00,
2013-02-28 07:35:00,38.1,24.2,29.65,West,274,0.0,0.0,57,0.00,,---,0.00,VWS V14.01,2013-02-28 12:35:00,
2013-02-28 07:40:00,38.0,24.1,29.66,West,271,0.0,5.0,57,0.00,,---,0.00,VWS V14.01,2013-02-28 12:40:00,
2013-02-28 07:45:00,37.9,24.5,29.66,West,271,0.0,1.0,58,0.00,,---,0.00,VWS V14.01,2013-02-28 12:45:00,
2013-02-28 07:50:00,38.0,25.0,29.66,West,271,0.0,0.0,59,0.00,,---,0.00,VWS V14.01,2013-02-28 12:50:00,
2013-02-28 07:55:00,38.4,25.7,29.66,West,271,2.0,4.0,60,0.00,,---,0.00,VWS V14.01,2013-02-28 12:55:00,
2013-02-28 08:00:00,39.2,26.1,29.65,West,271,1.0,4.0,59,0.00,,---,0.00,VWS V14.01,2013-02-28 13:00:00,
2013-02-28 08:05:00,39.8,26.7,29.66,WSW,250,0.0,4.0,59,0.00,,---,0.00,VWS V14.01,2013-02-28 13:05:00,
2013-02-28 08:10:00,39.9,26.8,29.66,SW,222,6.0,6.0,59,0.00,,---,0.00,VWS V14.01,2013-02-28 13:10:00,
2013-02-28 08:15:00,39.8,26.2,29.66,SSW,198,4.0,5.0,58,0.00,,---,0.00,VWS V14.01,2013-02-28 13:15:00,
2013-02-28 08:20:00,40.0,26.4,29.66,SSW,205,2.0,9.0,58,0.00,,---,0.00,VWS V14.01,2013-02-28 13:20:00,
2013-02-28 08:25:00,40.1,26.1,29.66,SSW,210,4.0,9.0,57,0.00,,---,0.00,VWS V14.01,2013-02-28 13:25:00,
2013-02-28 08:30:00,40.2,26.6,29.66,SW,223,5.0,7.0,58,0.00,,---,0.00,VWS V14.01,2013-02-28 13:30:00,
2013-02-28 08:35:00,40.2,26.2,29.66,SSW,206,3.0,9.0,57,0.00,,---,0.00,VWS V14.01,2013-02-28 13:35:00,
2013-02-28 08:40:00,40.1,26.1,29.66,SW,217,3.0,8.0,57,0.00,,---,0.00,VWS V14.01,2013-02-28 13:40:00,
2013-02-28 08:45:00,40.0,26.0,29.66,West,259,7.0,13.0,57,0.00,,---,0.00,VWS V14.01,2013-02-28 13:45:00,
2013-02-28 08:50:00,40.0,26.0,29.66,West,266,0.0,3.0,57,0.00,,---,0.00,VWS V14.01,2013-02-28 13:50:00,
2013-02-28 08:55:00,40.1,26.1,29.66,SSW,202,1.0,5.0,57,0.00,,---,0.00,VWS V14.01,2013-02-28 13:55:00,
2013-02-28 09:00:00,40.2,25.8,29.66,South,187,5.0,6.0,56,0.00,,---,0.00,VWS V14.01,2013-02-28 14:00:00,
2013-02-28 09:05:00,40.4,26.4,29.65,South,187,4.0,6.0,57,0.00,,---,0.00,VWS V14.01,2013-02-28 14:05:00,
2013-02-28 09:10:00,40.4,27.6,29.65,SE,144,5.0,8.0,60,0.00,,---,0.00,VWS V14.01,2013-02-28 14:10:00,
2013-02-28 09:15:00,40.4,28.0,29.65,South,175,6.0,7.0,61,0.00,,---,0.00,VWS V14.01,2013-02-28 14:15:00,
2013-02-28 09:20:00,40.4,27.2,29.65,SSW,198,4.0,7.0,59,0.00,,---,0.00,VWS V14.01,2013-02-28 14:20:00,
2013-02-28 09:25:00,40.4,27.6,29.65,SSW,202,3.0,7.0,60,0.00,,---,0.00,VWS V14.01,2013-02-28 14:25:00,
2013-02-28 09:30:00,40.5,26.9,29.65,SSW,207,3.0,6.0,58,0.00,,---,0.00,VWS V14.01,2013-02-28 14:30:00,
2013-02-28 09:35:00,40.5,26.5,29.65,SSW,198,4.0,10.0,57,0.00,,---,0.00,VWS V14.01,2013-02-28 14:35:00,
2013-02-28 09:40:00,40.6,26.6,29.65,SSW,193,6.0,9.0,57,0.00,,---,0.00,VWS V14.01,2013-02-28 14:40:00,
2013-02-28 09:45:00,40.7,27.1,29.66,WSW,247,3.0,10.0,58,0.00,,---,0.00,VWS V14.01,2013-02-28 14:45:00,
2013-02-28 09:50:00,40.6,26.6,29.65,SSW,198,3.0,9.0,57,0.00,,---,0.00,VWS V14.01,2013-02-28 14:50:00,
2013-02-28 09:55:00,40.7,27.1,29.66,SSW,200,3.0,9.0,58,0.00,,---,0.00,VWS V14.01,2013-02-28 14:55:00,
2013-02-28 10:00:00,40.7,27.1,29.65,SSW,200,5.0,7.0,58,0.00,,---,0.00,VWS V14.01,2013-02-28 15:00:00,
2013-02-28 10:05:00,40.5,26.9,29.66,SW,220,4.0,8.0,58,0.00,,---,0.00,VWS V14.01,2013-02-28 15:05:00,
2013-02-28 10:10:00,40.5,26.9,29.66,South,179,12.0,12.0,58,0.00,,---,0.00,VWS V14.01,2013-02-28 15:10:00,
2013-02-28 10:15:00,40.4,26.8,29.66,WSW,242,4.0,7.0,58,0.00,,---,0.00,VWS V14.01,2013-02-28 15:15:00,
2013-02-28 10:19:00,40.6,27.0,29.66,WSW,241,7.0,12.0,58,0.00,,---,0.00,VWS V14.01,2013-02-28 15:19:00,
2013-02-28 10:20:00,40.4,26.8,29.66,WSW,242,2.0,7.0,58,0.00,,---,0.00,VWS V14.01,2013-02-28 15:20:00,
2013-02-28 10:24:00,40.3,26.7,29.66,SSW,205,1.0,7.0,58,0.00,,---,0.00,VWS V14.01,2013-02-28 15:24:00,
2013-02-28 10:25:00,40.4,26.4,29.66,WSW,245,2.0,12.0,57,0.00,,---,0.00,VWS V14.01,2013-02-28 15:25:00,
2013-02-28 10:29:00,40.4,26.8,29.66,SSW,211,5.0,10.0,58,0.00,,---,0.00,VWS V14.01,2013-02-28 15:29:00,
2013-02-28 10:30:00,40.4,26.8,29.66,South,189,2.0,8.0,58,0.00,,---,0.00,VWS V14.01,2013-02-28 15:30:00,
2013-02-28 10:34:00,40.3,27.1,29.66,South,171,6.0,10.0,59,0.00,,---,0.00,VWS V14.01,2013-02-28 15:34:00,
2013-02-28 10:35:00,40.4,26.8,29.66,West,279,4.0,12.0,58,0.00,,---,0.00,VWS V14.01,2013-02-28 15:35:00,
2013-02-28 10:39:00,40.1,26.9,29.66,WSW,253,6.0,12.0,59,0.00,,---,0.00,VWS V14.01,2013-02-28 15:39:00,
2013-02-28 10:40:00,40.2,27.0,29.66,SW,228,5.0,10.0,59,0.00,,---,0.00,VWS V14.01,2013-02-28 15:40:00,
2013-02-28 10:44:00,39.8,27.1,29.66,SW,227,5.0,10.0,60,0.00,,---,0.00,VWS V14.01,2013-02-28 15:44:00,
2013-02-28 10:45:00,39.9,27.2,29.66,WSW,242,7.0,12.0,60,0.00,,---,0.00,VWS V14.01,2013-02-28 15:45:00,
2013-02-28 10:49:00,39.7,27.0,29.66,WSW,255,0.0,6.0,60,0.00,,---,0.00,VWS V14.01,2013-02-28 15:49:00,
2013-02-28 10:50:00,39.8,27.5,29.66,WSW,254,6.0,11.0,61,0.00,,---,0.00,VWS V14.01,2013-02-28 15:50:00,
2013-02-28 10:55:00,39.7,27.4,29.66,SW,235,5.0,7.0,61,0.00,,---,0.00,VWS V14.01,2013-02-28 15:55:00,
2013-02-28 10:59:00,39.8,27.5,29.66,South,185,4.0,11.0,61,0.00,,---,0.00,VWS V14.01,2013-02-28 15:59:00,
2013-02-28 11:00:00,39.8,27.5,29.66,SSE,150,6.0,7.0,61,0.00,,---,0.00,VWS V14.01,2013-02-28 16:00:00,
2013-02-28 11:04:00,40.0,28.0,29.66,SSW,210,2.0,4.0,62,0.00,,---,0.00,VWS V14.01,2013-02-28 16:04:00,
2013-02-28 11:05:00,39.9,27.6,29.66,WSW,248,0.0,11.0,61,0.00,,---,0.00,VWS V14.01,2013-02-28 16:05:00,
2013-02-28 11:09:00,40.2,27.8,29.67,WSW,250,0.0,6.0,61,0.00,,---,0.00,VWS V14.01,2013-02-28 16:09:00,
2013-02-28 11:10:00,40.1,28.1,29.66,SW,218,2.0,8.0,62,0.00,,---,0.00,VWS V14.01,2013-02-28 16:10:00,
2013-02-28 11:15:00,40.4,28.0,29.66,SW,224,6.0,10.0,61,0.00,,---,0.00,VWS V14.01,2013-02-28 16:15:00,
2013-02-28 11:20:00,40.4,27.6,29.67,SW,215,2.0,5.0,60,0.00,,---,0.00,VWS V14.01,2013-02-28 16:20:00,
2013-02-28 11:24:00,40.5,28.1,29.67,West,259,0.0,7.0,61,0.00,,---,0.00,VWS V14.01,2013-02-28 16:24:00,
2013-02-28 11:25:00,40.5,28.1,29.67,West,259,7.0,7.0,61,0.00,,---,0.00,VWS V14.01,2013-02-28 16:25:00,
2013-02-28 11:29:00,40.7,27.9,29.67,South,175,1.0,7.0,60,0.00,,---,0.00,VWS V14.01,2013-02-28 16:29:00,
2013-02-28 11:30:00,40.6,28.2,29.67,South,177,7.0,7.0,61,0.00,,---,0.00,VWS V14.01,2013-02-28 16:30:00,
2013-02-28 11:35:00,40.8,27.6,29.67,SSE,167,5.0,7.0,59,0.00,,---,0.00,VWS V14.01,2013-02-28 16:35:00,
2013-02-28 11:40:00,40.9,27.7,29.67,WSW,238,11.0,12.0,59,0.00,,---,0.00,VWS V14.01,2013-02-28 16:40:00,
2013-02-28 11:45:00,40.6,27.4,29.67,SW,231,10.0,14.0,59,0.00,,---,0.00,VWS V14.01,2013-02-28 16:45:00,
2013-02-28 11:50:00,40.5,26.9,29.66,WSW,241,1.0,8.0,58,0.00,,---,0.00,VWS V14.01,2013-02-28 16:50:00,
2013-02-28 11:55:00,40.5,26.5,29.67,WSW,238,7.0,13.0,57,0.00,,---,0.00,VWS V14.01,2013-02-28 16:55:00,
2013-02-28 12:00:00,40.6,26.6,29.67,SW,231,4.0,7.0,57,0.00,,---,0.00,VWS V14.01,2013-02-28 17:00:00,
2013-02-28 12:05:00,40.5,26.0,29.66,West,270,5.0,6.0,56,0.00,,---,0.00,VWS V14.01,2013-02-28 17:05:00,
2013-02-28 12:10:00,40.6,26.1,29.66,WSW,249,2.0,3.0,56,0.00,,---,0.00,VWS V14.01,2013-02-28 17:10:00,
2013-02-28 12:15:00,40.6,26.1,29.66,SW,217,7.0,8.0,56,0.00,,---,0.00,VWS V14.01,2013-02-28 17:15:00,
2013-02-28 12:20:00,40.7,25.4,29.66,SW,221,0.0,5.0,54,0.00,,---,0.00,VWS V14.01,2013-02-28 17:20:00,
2013-02-28 12:25:00,40.9,26.0,29.66,SW,217,0.0,3.0,55,0.00,,---,0.00,VWS V14.01,2013-02-28 17:25:00,
2013-02-28 12:30:00,41.1,26.2,29.66,WSW,257,3.0,7.0,55,0.00,,---,0.00,VWS V14.01,2013-02-28 17:30:00,
2013-02-28 12:35:00,41.2,25.8,29.66,SW,222,4.0,8.0,54,0.00,,---,0.00,VWS V14.01,2013-02-28 17:35:00,
2013-02-28 12:40:00,41.2,25.8,29.66,WSW,255,0.0,4.0,54,0.00,,---,0.00,VWS V14.01,2013-02-28 17:40:00,
2013-02-28 12:45:00,41.3,25.5,29.65,NNW,335,1.0,8.0,53,0.00,,---,0.00,VWS V14.01,2013-02-28 17:45:00,
2013-02-28 12:50:00,41.4,26.0,29.65,SSW,211,3.0,6.0,54,0.00,,---,0.00,VWS V14.01,2013-02-28 17:50:00,
2013-02-28 12:55:00,41.6,25.3,29.65,SSW,198,4.0,7.0,52,0.00,,---,0.00,VWS V14.01,2013-02-28 17:55:00,
2013-02-28 13:00:00,41.7,25.4,29.65,SW,227,5.0,8.0,52,0.00,,---,0.00,VWS V14.01,2013-02-28 18:00:00,
2013-02-28 13:05:00,41.7,24.9,29.65,West,273,4.0,11.0,51,0.00,,---,0.00,VWS V14.01,2013-02-28 18:05:00,
2013-02-28 13:10:00,42.0,26.1,29.65,West,271,5.0,6.0,53,0.00,,---,0.00,VWS V14.01,2013-02-28 18:10:00,
2013-02-28 13:15:00,42.4,25.6,29.65,WSW,250,15.0,15.0,51,0.00,,---,0.00,VWS V14.01,2013-02-28 18:15:00,
2013-02-28 13:20:00,42.2,24.9,29.65,West,269,5.0,14.0,50,0.00,,---,0.00,VWS V14.01,2013-02-28 18:20:00,
2013-02-28 13:25:00,42.1,25.3,29.65,WSW,257,5.0,9.0,51,0.00,,---,0.00,VWS V14.01,2013-02-28 18:25:00,
2013-02-28 13:30:00,42.4,25.6,29.65,SW,222,7.0,10.0,51,0.00,,---,0.00,VWS V14.01,2013-02-28 18:30:00,
2013-02-28 13:35:00,42.4,25.1,29.65,SSE,155,2.0,7.0,50,0.00,,---,0.00,VWS V14.01,2013-02-28 18:35:00,
2013-02-28 13:40:00,42.4,25.1,29.65,West,272,5.0,14.0,50,0.00,,---,0.00,VWS V14.01,2013-02-28 18:40:00,
2013-02-28 13:45:00,42.4,25.1,29.65,SW,215,3.0,9.0,50,0.00,,---,0.00,VWS V14.01,2013-02-28 18:45:00,
2013-02-28 13:50:00,42.3,25.0,29.65,South,181,8.0,16.0,50,0.00,,---,0.00,VWS V14.01,2013-02-28 18:50:00,
2013-02-28 13:55:00,42.5,25.7,29.65,SW,229,7.0,10.0,51,0.00,,---,0.00,VWS V14.01,2013-02-28 18:55:00,
2013-02-28 14:00:00,42.4,25.1,29.65,West,261,11.0,14.0,50,0.00,,---,0.00,VWS V14.01,2013-02-28 19:00:00,
2013-02-28 14:05:00,42.2,24.9,29.65,West,267,7.0,12.0,50,0.00,,---,0.00,VWS V14.01,2013-02-28 19:05:00,
2013-02-28 14:10:00,42.0,24.7,29.65,WNW,294,12.0,14.0,50,0.00,,---,0.00,VWS V14.01,2013-02-28 19:10:00,
2013-02-28 14:15:00,41.8,24.1,29.65,West,269,2.0,8.0,49,0.00,,---,0.00,VWS V14.01,2013-02-28 19:15:00,
2013-02-28 14:20:00,41.8,25.0,29.65,WNW,290,0.0,12.0,51,0.00,,---,0.00,VWS V14.01,2013-02-28 19:20:00,
2013-02-28 14:25:00,41.9,24.1,29.65,NW,323,5.0,7.0,49,0.00,,---,0.00,VWS V14.01,2013-02-28 19:25:00,
2013-02-28 14:30:00,41.8,24.1,29.65,NW,325,1.0,6.0,49,0.00,,---,0.00,VWS V14.01,2013-02-28 19:30:00,
2013-02-28 14:35:00,42.0,24.7,29.65,WSW,249,0.0,2.0,50,0.00,,---,0.00,VWS V14.01,2013-02-28 19:35:00,
2013-02-28 14:40:00,42.4,26.0,29.65,NW,322,7.0,7.0,52,0.00,,---,0.00,VWS V14.01,2013-02-28 19:40:00,
2013-02-28 14:45:00,42.4,25.6,29.65,NNW,327,13.0,17.0,51,0.00,,---,0.00,VWS V14.01,2013-02-28 19:45:00,
2013-02-28 14:50:00,42.3,25.0,29.65,WNW,286,5.0,12.0,50,0.00,,---,0.00,VWS V14.01,2013-02-28 19:50:00,
2013-02-28 14:55:00,42.2,26.3,29.65,WNW,296,7.0,12.0,53,0.00,,---,0.00,VWS V14.01,2013-02-28 19:55:00,
2013-02-28 15:00:00,42.3,25.5,29.65,WNW,298,5.0,9.0,51,0.00,,---,0.00,VWS V14.01,2013-02-28 20:00:00,
2013-02-28 15:05:00,42.6,25.8,29.65,SW,229,1.0,8.0,51,0.00,,---,0.00,VWS V14.01,2013-02-28 20:05:00,
2013-02-28 15:10:00,42.9,27.0,29.65,NW,317,9.0,12.0,53,0.00,,---,0.00,VWS V14.01,2013-02-28 20:10:00,
2013-02-28 15:15:00,42.8,25.5,29.65,NW,325,4.0,8.0,50,0.00,,---,0.00,VWS V14.01,2013-02-28 20:15:00,
2013-02-28 15:20:00,43.2,27.2,29.65,WSW,241,3.0,8.0,53,0.00,,---,0.00,VWS V14.01,2013-02-28 20:20:00,
2013-02-28 15:25:00,43.8,25.9,29.65,West,269,14.0,16.0,49,0.00,,---,0.00,VWS V14.01,2013-02-28 20:25:00,
2013-02-28 15:30:00,43.2,25.8,29.65,WNW,284,9.0,12.0,50,0.00,,---,0.00,VWS V14.01,2013-02-28 20:30:00,
2013-02-28 15:35:00,42.8,25.9,29.65,NW,315,2.0,8.0,51,0.00,,---,0.00,VWS V14.01,2013-02-28 20:35:00,
2013-02-28 15:40:00,42.7,25.4,29.65,NW,321,6.0,16.0,50,0.00,,---,0.00,VWS V14.01,2013-02-28 20:40:00,
2013-02-28 15:45:00,42.4,24.6,29.65,NW,321,6.0,21.0,49,0.00,,---,0.00,VWS V14.01,2013-02-28 20:45:00,
2013-02-28 15:50:00,42.3,25.5,29.65,SW,233,8.0,13.0,51,0.00,,---,0.00,VWS V14.01,2013-02-28 20:50:00,
2013-02-28 15:55:00,42.3,25.0,29.65,NW,309,4.0,10.0,50,0.00,,---,0.00,VWS V14.01,2013-02-28 20:55:00,
2013-02-28 16:00:00,42.3,25.9,29.66,WNW,284,9.0,12.0,52,0.00,,---,0.00,VWS V14.01,2013-02-28 21:00:00,
2013-02-28 16:05:00,42.0,24.7,29.65,NW,304,2.0,4.0,50,0.00,,---,0.00,VWS V14.01,2013-02-28 21:05:00,
2013-02-28 16:10:00,42.2,25.9,29.65,ESE,118,0.0,4.0,52,0.00,,---,0.00,VWS V14.01,2013-02-28 21:10:00,
2013-02-28 16:15:00,42.2,25.9,29.65,SW,216,3.0,12.0,52,0.00,,---,0.00,VWS V14.01,2013-02-28 21:15:00,
2013-02-28 16:20:00,42.0,25.2,29.65,South,188,1.0,8.0,51,0.00,,---,0.00,VWS V14.01,2013-02-28 21:20:00,
2013-02-28 16:25:00,42.0,25.2,29.65,SW,220,5.0,10.0,51,0.00,,---,0.00,VWS V14.01,2013-02-28 21:25:00,
2013-02-28 16:30:00,41.9,26.0,29.65,SW,214,3.0,12.0,53,0.00,,---,0.00,VWS V14.01,2013-02-28 21:30:00,
2013-02-28 16:35:00,41.8,25.5,29.65,WNW,295,5.0,12.0,52,0.00,,---,0.00,VWS V14.01,2013-02-28 21:35:00,
2013-02-28 16:40:00,41.8,25.9,29.65,SSW,196,7.0,7.0,53,0.00,,---,0.00,VWS V14.01,2013-02-28 21:40:00,
2013-02-28 16:45:00,41.8,25.5,29.65,SSW,194,4.0,4.0,52,0.00,,---,0.00,VWS V14.01,2013-02-28 21:45:00,
2013-02-28 16:50:00,41.8,25.5,29.66,WSW,252,3.0,10.0,52,0.00,,---,0.00,VWS V14.01,2013-02-28 21:50:00,
2013-02-28 16:55:00,41.8,25.9,29.66,SW,225,3.0,4.0,53,0.00,,---,0.00,VWS V14.01,2013-02-28 21:55:00,
2013-02-28 17:00:00,41.8,25.9,29.66,WSW,257,1.0,3.0,53,0.00,,---,0.00,VWS V14.01,2013-02-28 22:00:00,
2013-02-28 17:05:00,41.7,25.4,29.66,SW,220,3.0,4.0,52,0.00,,---,0.00,VWS V14.01,2013-02-28 22:05:00,
2013-02-28 17:10:00,41.6,26.2,29.66,NNW,329,4.0,11.0,54,0.00,,---,0.00,VWS V14.01,2013-02-28 22:10:00,
2013-02-28 17:15:00,41.5,25.7,29.67,SW,215,4.0,9.0,53,0.00,,---,0.00,VWS V14.01,2013-02-28 22:15:00,
2013-02-28 17:20:00,41.4,26.0,29.67,WSW,254,1.0,7.0,54,0.00,,---,0.00,VWS V14.01,2013-02-28 22:20:00,
2013-02-28 17:25:00,41.3,25.9,29.67,WSW,257,14.0,18.0,54,0.00,,---,0.00,VWS V14.01,2013-02-28 22:25:00,
2013-02-28 17:30:00,41.1,25.7,29.67,West,266,3.0,5.0,54,0.00,,---,0.00,VWS V14.01,2013-02-28 22:30:00,
2013-02-28 17:35:00,41.0,25.6,29.67,SW,233,5.0,5.0,54,0.00,,---,0.00,VWS V14.01,2013-02-28 22:35:00,
2013-02-28 17:40:00,41.0,26.1,29.68,WNW,301,6.0,14.0,55,0.00,,---,0.00,VWS V14.01,2013-02-28 22:40:00,
2013-02-28 17:45:00,41.0,25.6,29.68,NW,304,9.0,12.0,54,0.00,,---,0.00,VWS V14.01,2013-02-28 22:45:00,
2013-02-28 17:50:00,40.9,26.0,29.68,West,274,2.0,6.0,55,0.00,,---,0.00,VWS V14.01,2013-02-28 22:50:00,
2013-02-28 17:55:00,40.8,25.9,29.68,NNW,344,5.0,6.0,55,0.00,,---,0.00,VWS V14.01,2013-02-28 22:55:00,
2013-02-28 18:00:00,40.8,25.5,29.68,NW,322,2.0,6.0,54,0.00,,---,0.00,VWS V14.01,2013-02-28 23:00:00,
2013-02-28 18:05:00,40.8,25.9,29.68,SW,234,2.0,7.0,55,0.00,,---,0.00,VWS V14.01,2013-02-28 23:05:00,
2013-02-28 18:10:00,40.9,25.5,29.68,West,275,6.0,8.0,54,0.00,,---,0.00,VWS V14.01,2013-02-28 23:10:00,
2013-02-28 18:15:00,40.9,25.5,29.68,SE,136,0.0,4.0,54,0.00,,---,0.00,VWS V14.01,2013-02-28 23:15:00,
2013-02-28 18:20:00,40.9,25.5,29.69,South,182,0.0,3.0,54,0.00,,---,0.00,VWS V14.01,2013-02-28 23:20:00,
2013-02-28 18:25:00,40.8,25.9,29.69,WNW,287,7.0,7.0,55,0.00,,---,0.00,VWS V14.01,2013-02-28 23:25:00,
2013-02-28 18:30:00,40.7,26.2,29.69,WSW,255,3.0,22.0,56,0.00,,---,0.00,VWS V14.01,2013-02-28 23:30:00,
2013-02-28 18:35:00,40.6,26.1,29.69,NW,306,12.0,12.0,56,0.00,,---,0.00,VWS V14.01,2013-02-28 23:35:00,
2013-02-28 18:40:00,40.5,26.0,29.69,NNW,336,9.0,13.0,56,0.00,,---,0.00,VWS V14.01,2013-02-28 23:40:00,
2013-02-28 18:45:00,40.5,26.0,29.70,NW,320,18.0,18.0,56,0.00,,---,0.00,VWS V14.01,2013-02-28 23:45:00,
2013-02-28 18:50:00,40.5,26.0,29.71,NNW,340,2.0,15.0,56,0.00,,---,0.00,VWS V14.01,2013-02-28 23:50:00,
2013-02-28 18:55:00,40.5,26.0,29.71,WSW,254,5.0,14.0,56,0.00,,---,0.00,VWS V14.01,2013-02-28 23:55:00,
2013-02-28 19:00:00,40.4,26.0,29.71,SW,232,10.0,14.0,56,0.00,,---,0.00,VWS V14.01,2013-03-01 00:00:00,
2013-02-28 19:05:00,40.4,26.4,29.71,NNW,329,13.0,16.0,57,0.00,,---,0.00,VWS V14.01,2013-03-01 00:05:00,
2013-02-28 19:10:00,40.5,26.0,29.71,WNW,301,11.0,16.0,56,0.00,,---,0.00,VWS V14.01,2013-03-01 00:10:00,
2013-02-28 19:15:00,40.4,26.0,29.71,SW,219,0.0,11.0,56,0.00,,---,0.00,VWS V14.01,2013-03-01 00:15:00,
2013-02-28 19:20:00,40.3,25.9,29.72,NW,315,0.0,1.0,56,0.00,,---,0.00,VWS V14.01,2013-03-01 00:20:00,
2013-02-28 19:25:00,40.1,25.7,29.72,West,275,4.0,9.0,56,0.00,,---,0.00,VWS V14.01,2013-03-01 00:25:00,
2013-02-28 19:30:00,39.9,25.9,29.72,West,275,0.0,0.0,57,0.00,,---,0.00,VWS V14.01,2013-03-01 00:30:00,
2013-02-28 19:35:00,39.7,26.6,29.72,West,273,0.0,4.0,59,0.00,,---,0.00,VWS V14.01,2013-03-01 00:35:00,
2013-02-28 19:40:00,39.8,25.8,29.72,WNW,291,13.0,13.0,57,0.00,,---,0.00,VWS V14.01,2013-03-01 00:40:00,
2013-02-28 19:45:00,40.0,26.0,29.72,SW,222,1.0,7.0,57,0.00,,---,0.00,VWS V14.01,2013-03-01 00:45:00,
2013-02-28 19:50:00,40.2,26.2,29.72,WSW,258,7.0,13.0,57,0.00,,---,0.00,VWS V14.01,2013-03-01 00:50:00,
2013-02-28 19:55:00,40.2,26.2,29.73,SW,229,0.0,14.0,57,0.00,,---,0.00,VWS V14.01,2013-03-01 00:55:00,
2013-02-28 20:00:00,40.2,26.2,29.73,NW,321,0.0,5.0,57,0.00,,---,0.00,VWS V14.01,2013-03-01 01:00:00,
2013-02-28 20:05:00,40.2,26.2,29.73,SW,215,2.0,5.0,57,0.00,,---,0.00,VWS V14.01,2013-03-01 01:05:00,
2013-02-28 20:10:00,40.2,26.6,29.73,WSW,254,6.0,7.0,58,0.00,,---,0.00,VWS V14.01,2013-03-01 01:10:00,
2013-02-28 20:15:00,40.2,26.6,29.73,WNW,284,11.0,15.0,58,0.00,,---,0.00,VWS V14.01,2013-03-01 01:15:00,
2013-02-28 20:20:00,40.2,26.6,29.73,South,172,0.0,25.0,58,0.00,,---,0.00,VWS V14.01,2013-03-01 01:20:00,
2013-02-28 20:25:00,40.3,26.7,29.73,West,265,5.0,12.0,58,0.00,,---,0.00,VWS V14.01,2013-03-01 01:25:00,
2013-02-28 20:30:00,40.2,26.6,29.73,West,280,5.0,14.0,58,0.00,,---,0.00,VWS V14.01,2013-03-01 01:30:00,
2013-02-28 20:35:00,40.2,27.0,29.73,NW,323,7.0,18.0,59,0.00,,---,0.00,VWS V14.01,2013-03-01 01:35:00,
2013-02-28 20:40:00,40.2,26.6,29.73,West,263,3.0,16.0,58,0.00,,---,0.00,VWS V14.01,2013-03-01 01:40:00,
2013-02-28 20:45:00,40.1,26.5,29.73,SW,229,1.0,7.0,58,0.00,,---,0.00,VWS V14.01,2013-03-01 01:45:00,
2013-02-28 20:50:00,40.2,27.0,29.73,West,270,5.0,7.0,59,0.00,,---,0.00,VWS V14.01,2013-03-01 01:50:00,
2013-02-28 20:55:00,40.1,26.9,29.73,West,271,2.0,20.0,59,0.00,,---,0.00,VWS V14.01,2013-03-01 01:55:00,
2013-02-28 21:00:00,40.1,26.9,29.73,WNW,301,4.0,13.0,59,0.00,,---,0.00,VWS V14.01,2013-03-01 02:00:00,
2013-02-28 21:05:00,40.0,26.8,29.73,West,281,13.0,19.0,59,0.00,,---,0.00,VWS V14.01,2013-03-01 02:05:00,
2013-02-28 21:10:00,40.1,26.9,29.73,NNW,341,0.0,10.0,59,0.00,,---,0.00,VWS V14.01,2013-03-01 02:10:00,
2013-02-28 21:15:00,40.1,26.9,29.73,WNW,297,7.0,7.0,59,0.00,,---,0.00,VWS V14.01,2013-03-01 02:15:00,
2013-02-28 21:20:00,40.1,27.4,29.73,West,281,6.0,13.0,60,0.00,,---,0.00,VWS V14.01,2013-03-01 02:20:00,
2013-02-28 21:25:00,40.1,27.4,29.73,WNW,296,13.0,24.0,60,0.00,,---,0.00,VWS V14.01,2013-03-01 02:25:00,
2013-02-28 21:30:00,40.1,27.8,29.73,West,276,8.0,14.0,61,0.00,,---,0.00,VWS V14.01,2013-03-01 02:30:00,
2013-02-28 21:35:00,40.1,27.4,29.73,WNW,290,13.0,16.0,60,0.00,,---,0.00,VWS V14.01,2013-03-01 02:35:00,
2013-02-28 21:40:00,40.0,27.6,29.73,WNW,290,5.0,8.0,61,0.00,,---,0.00,VWS V14.01,2013-03-01 02:40:00,
2013-02-28 21:45:00,40.0,27.6,29.73,North,9,4.0,13.0,61,0.00,,---,0.00,VWS V14.01,2013-03-01 02:45:00,
2013-02-28 21:50:00,39.8,27.9,29.73,North,5,2.0,4.0,62,0.00,,---,0.00,VWS V14.01,2013-03-01 02:50:00,
2013-02-28 21:55:00,39.7,27.8,29.73,North,5,3.0,6.0,62,0.00,,---,0.00,VWS V14.01,2013-03-01 02:55:00,
2013-02-28 22:00:00,39.7,27.8,29.73,NNE,26,3.0,7.0,62,0.00,,---,0.00,VWS V14.01,2013-03-01 03:00:00,
2013-02-28 22:05:00,39.7,27.8,29.73,NW,307,6.0,11.0,62,0.00,,---,0.00,VWS V14.01,2013-03-01 03:05:00,
2013-02-28 22:10:00,39.7,27.8,29.73,NW,324,4.0,10.0,62,0.00,,---,0.00,VWS V14.01,2013-03-01 03:10:00,
2013-02-28 22:15:00,39.7,27.8,29.73,NW,306,4.0,4.0,62,0.00,,---,0.00,VWS V14.01,2013-03-01 03:15:00,
2013-02-28 22:20:00,39.6,28.1,29.73,NNE,27,5.0,5.0,63,0.00,,---,0.00,VWS V14.01,2013-03-01 03:20:00,
2013-02-28 22:25:00,39.6,27.7,29.73,NNE,31,2.0,3.0,62,0.00,,---,0.00,VWS V14.01,2013-03-01 03:25:00,
2013-02-28 22:30:00,39.6,27.7,29.73,NNE,30,0.0,2.0,62,0.00,,---,0.00,VWS V14.01,2013-03-01 03:30:00,
2013-02-28 22:35:00,39.6,28.1,29.73,NNW,334,0.0,0.0,63,0.00,,---,0.00,VWS V14.01,2013-03-01 03:35:00,
2013-02-28 22:40:00,39.5,27.6,29.73,NNW,335,2.0,4.0,62,0.00,,---,0.00,VWS V14.01,2013-03-01 03:40:00,
2013-02-28 22:45:00,39.5,28.0,29.73,NNW,348,9.0,9.0,63,0.00,,---,0.00,VWS V14.01,2013-03-01 03:45:00,
2013-02-28 22:50:00,39.5,28.0,29.73,NNW,347,2.0,5.0,63,0.00,,---,0.00,VWS V14.01,2013-03-01 03:50:00,
2013-02-28 22:55:00,39.3,27.8,29.72,North,355,2.0,5.0,63,0.00,,---,0.00,VWS V14.01,2013-03-01 03:55:00,
2013-02-28 23:00:00,39.2,28.1,29.72,North,355,0.0,0.0,64,0.00,,---,0.00,VWS V14.01,2013-03-01 04:00:00,
2013-02-28 23:05:00,39.2,28.1,29.73,NNW,334,2.0,6.0,64,0.00,,---,0.00,VWS V14.01,2013-03-01 04:05:00,
2013-02-28 23:10:00,39.3,28.2,29.73,NW,305,0.0,4.0,64,0.00,,---,0.00,VWS V14.01,2013-03-01 04:10:00,
2013-02-28 23:15:00,39.1,28.0,29.73,NW,305,0.0,0.0,64,0.00,,---,0.00,VWS V14.01,2013-03-01 04:15:00,
2013-02-28 23:20:00,38.9,28.1,29.73,NW,305,1.0,2.0,65,0.00,,---,0.00,VWS V14.01,2013-03-01 04:20:00,
2013-02-28 23:25:00,39.1,28.0,29.73,NE,48,2.0,5.0,64,0.00,,---,0.00,VWS V14.01,2013-03-01 04:25:00,
2013-02-28 23:30:00,39.2,28.4,29.73,NNE,24,0.0,3.0,65,0.00,,---,0.00,VWS V14.01,2013-03-01 04:30:00,
2013-02-28 23:35:00,39.2,28.1,29.73,North,360,4.0,6.0,64,0.00,,---,0.00,VWS V14.01,2013-03-01 04:35:00,
2013-02-28 23:40:00,39.3,28.2,29.73,North,355,8.0,12.0,64,0.00,,---,0.00,VWS V14.01,2013-03-01 04:40:00,
2013-02-28 23:45:00,39.4,27.9,29.73,North,351,6.0,13.0,63,0.00,,---,0.00,VWS V14.01,2013-03-01 04:45:00,
2013-02-28 23:50:00,39.4,27.9,29.73,North,355,7.0,9.0,63,0.00,,---,0.00,VWS V14.01,2013-03-01 04:50:00,
2013-02-28 23:55:00,39.1,27.6,29.73,NNW,344,4.0,6.0,63,0.00,,---,0.00,VWS V14.01,2013-03-01 04:55:00,